Regional Weather Roundup
Issued by NWS Kansas City/Pleasant Hill, MO

Home | Current Version | Previous Version | Text Only | Print | Product List | Glossary On
Versions: 1 2 3 4 5 6 7 8 9 10 11 12 13 14 15 16 17 18 19 20 21 22 23 24 25 26 27 28 29 30 31 32 33 34 35 36 37 38 39 40 41 42 43 44 45 46 47 48 49 50
000
ASUS43 KEAX 211310
RWREAX

WEATHER ROUNDUP FOR EASTERN KANSAS AND NORTHWEST MISSOURI
NATIONAL WEATHER SERVICE KANSAS CITY/PLEASANT HILL MO
700 AM CST TUE NOV 21 2017

KSZ040-057-103>105-MOZ028-029-037-043-211400-
...KANSAS CITY METROPOLITAN AREA...

CITY           SKY/WX    TMP DP  RH WIND       PRES   REMARKS
K.C. INTL      CLOUDY    46  32  58 NW8       29.85R
K.C. DOWNTOWN  CLOUDY    49  32  52 CALM      29.85R
LEES SUMMIT    CLOUDY    47  33  58 W7        29.85R
OLATHE - IXD   CLOUDY    44  33  65 W5        29.86R
OLATHE - OJC   MOCLDY    45  32  60 W6        29.85R
LAWRENCE       MOCLDY    45  34  65 NW9       29.87R

$$

MOZ001>008-011>017-020>025-030>033-038>040-044>046-053-054-211400-
...NORTHERN AND CENTRAL MISSOURI...

CITY           SKY/WX    TMP DP  RH WIND       PRES   REMARKS
ST. JOSEPH     CLOUDY    44  31  60 N16       29.91R
MOSBY          CLOUDY    43  32  65 NW3       29.87R
WARRENSBURG    CLOUDY    45  32  61 W3        29.84R
WHITEMAN AFB   CLEAR     45  33  62 W6        29.80R
CLINTON        CLOUDY    46  34  61 MISG      29.84R
SEDALIA        CLOUDY    47  35  63 SW8       29.84R
WARSAW         NOT AVBL
CHILLICOTHE      N/A     45  32  60 N10       29.86R
KIRKSVILLE     PTCLDY    43  33  68 NW8       29.85R

$$

MOZ041-047>049-056>058-063>065-088>090-097-211400-
...EASTERN AND SOUTHERN MISSOURI...

CITY           SKY/WX    TMP DP  RH WIND       PRES   REMARKS
ST. LOUIS INTL MOCLDY    45  30  55 S9        29.85R
SPIRIT OF STL  CLOUDY    46  31  55 SW9       29.85R
COLUMBIA       CLOUDY    40  32  73 S5        29.83R
JEFFERSON CITY MOCLDY    44  31  60 CALM      29.85R
ROLLA          PTCLDY    42  30  62 S15       29.85R WCI  34
OSAGE BEACH    PTCLDY    40  31  70 S5        29.86R
SPRINGFIELD    MOCLDY    43  32  65 S12       29.84R
BRANSON        MOCLDY    39  32  75 SE7       29.89R WCI  34
JOPLIN         MOCLDY    45  34  65 S7        29.85R
WEST PLAINS    CLOUDY    37  28  70 S6        29.91R WCI  32

$$

IAZ060-094-KSZ022-034>040-054-083-096-NEZ052-066-093-211400-
...KANSAS...SOUTHEAST NEBRASKA AND IOWA...

CITY           SKY/WX    TMP DP  RH WIND       PRES   REMARKS
TOPEKA         CLOUDY    49  31  49 N14G22    29.89R
MANHATTAN      CLOUDY    50  27  40 NE18G35   29.88R
EMPORIA        CLOUDY    44  32  62 NE8       29.83R
CHANUTE        CLOUDY    44  33  65 SW5       29.85R
WICHITA        CLOUDY    40  33  76 N3        29.82R
OMAHA          LGT RAIN  38  28  67 N13       29.99R WCI  30
LINCOLN        PTCLDY    40  27  59 N16G28    30.02R WCI  31
FALLS CITY     CLOUDY    45  25  45 N8G18     29.95R
LAMONI         CLOUDY    43  24  47 N16G23    29.88R
DES MOINES     LGTSLEET  39  25  57 NW15      29.90R WCI  31

$$




USA.gov is the U.S. government's official web portal to all federal, state and local government web resources and services.